N984CW KRDU-KDCA

Flight info

Callsign N984CW
Flight time 0h 39m
Altitude 7000
Route RDU T398 BOUSY RIC IRONS7
Aircraft C172/L-SFG/C

Departure

Time 2026-05-03 20:15
Airport Raleigh-Durham International Airport (KRDU)

Arrival

Time 2026-05-03 20:55
Airport Ronald Reagan Washington National Airport (KDCA)
Time Latitude Longitude Altitude Speed Heading
2026-05-03 20:15 35.87971 -78.77570 781 ft 68 kts 67°
2026-05-03 20:15 35.88278 -78.77162 828 ft 68 kts 14°
2026-05-03 20:15 35.88600 -78.76769 1014 ft 67 kts 39°
2026-05-03 20:15 35.88909 -78.76318 1153 ft 72 kts 37°
2026-05-03 20:16 35.89268 -78.75841 1285 ft 79 kts 39°
2026-05-03 20:16 35.89669 -78.75330 1417 ft 86 kts 38°
2026-05-03 20:16 35.90078 -78.74747 1549 ft 91 kts 37°
2026-05-03 20:16 35.90519 -78.74151 1670 ft 96 kts 42°
2026-05-03 20:17 35.90990 -78.73558 1801 ft 97 kts 36°
2026-05-03 20:17 35.91515 -78.73019 1930 ft 98 kts 32°
2026-05-03 20:17 35.92043 -78.72495 2085 ft 96 kts 30°
2026-05-03 20:17 35.92552 -78.71985 2248 ft 93 kts 30°
2026-05-03 20:18 35.93058 -78.71484 2415 ft 92 kts 28°
2026-05-03 20:18 35.93554 -78.70996 2582 ft 90 kts 29°
2026-05-03 20:18 35.94039 -78.70518 2750 ft 89 kts 28°
2026-05-03 20:18 35.94526 -78.70036 2922 ft 89 kts 29°
2026-05-03 20:19 35.95003 -78.69565 3093 ft 88 kts 29°
2026-05-03 20:19 35.95468 -78.69106 3258 ft 87 kts 29°
2026-05-03 20:19 35.95938 -78.68636 3425 ft 86 kts 29°
2026-05-03 20:19 35.96402 -78.68177 3591 ft 86 kts 28°
2026-05-03 20:20 35.96867 -78.67718 3760 ft 85 kts 29°
2026-05-03 20:20 35.97327 -78.67261 3930 ft 85 kts 28°
2026-05-03 20:20 35.97790 -78.66805 4102 ft 84 kts 28°
2026-05-03 20:20 36.00668 -78.63961 5159 ft 83 kts 27°
2026-05-03 20:21 36.04554 -78.60100 6567 ft 81 kts 26°
2026-05-03 20:21 36.04983 -78.59674 6735 ft 77 kts 24°
2026-05-03 20:21 36.05397 -78.59266 6902 ft 73 kts 22°
2026-05-03 20:21 36.05803 -78.58878 6978 ft 82 kts 22°
2026-05-03 20:22 36.06308 -78.58405 6968 ft 100 kts 27°
2026-05-03 20:22 36.06884 -78.57834 6961 ft 111 kts 30°
2026-05-03 20:22 36.07496 -78.57206 6955 ft 116 kts 31°
2026-05-03 20:22 36.08127 -78.56553 6954 ft 119 kts 32°
2026-05-03 20:23 36.08768 -78.55882 6953 ft 121 kts 33°
2026-05-03 20:23 36.09405 -78.55206 6949 ft 121 kts 31°
2026-05-03 20:23 36.10084 -78.54578 6948 ft 119 kts 27°
2026-05-03 20:23 36.10761 -78.54008 6950 ft 118 kts 25°
2026-05-03 20:24 36.15917 -78.49951 6975 ft 117 kts 23°
2026-05-03 20:24 36.26120 -78.42033 6987 ft 117 kts 25°
2026-05-03 20:24 36.26795 -78.41447 6956 ft 119 kts 27°
2026-05-03 20:24 36.27490 -78.40839 6951 ft 118 kts 27°
2026-05-03 20:25 36.38034 -78.31127 6943 ft 118 kts 29°
2026-05-03 20:25 36.48457 -78.21416 6930 ft 117 kts 28°
2026-05-03 20:25 36.58970 -78.11538 6930 ft 117 kts 29°
2026-05-03 20:25 36.69350 -78.01736 6929 ft 117 kts 29°
2026-05-03 20:26 36.77534 -77.93980 6932 ft 117 kts 29°
2026-05-03 20:26 36.78177 -77.93368 6950 ft 116 kts 28°
2026-05-03 20:26 36.78816 -77.92761 6952 ft 117 kts 28°
2026-05-03 20:26 36.79468 -77.92141 6952 ft 117 kts 29°
2026-05-03 20:27 36.80125 -77.91514 6950 ft 118 kts 29°
2026-05-03 20:27 36.80772 -77.90900 6949 ft 118 kts 29°
2026-05-03 20:27 36.81427 -77.90275 6949 ft 118 kts 29°
2026-05-03 20:27 36.82082 -77.89676 6949 ft 117 kts 29°
2026-05-03 20:28 36.82739 -77.89063 6950 ft 117 kts 28°
2026-05-03 20:28 36.83396 -77.88464 6948 ft 117 kts 28°
2026-05-03 20:28 36.84056 -77.87875 6949 ft 116 kts 27°
2026-05-03 20:28 36.84720 -77.87291 6948 ft 116 kts 27°
2026-05-03 20:29 36.85393 -77.86705 6946 ft 117 kts 27°
2026-05-03 20:29 36.86066 -77.86126 6942 ft 117 kts 26°
2026-05-03 20:29 36.86737 -77.85551 6943 ft 117 kts 26°
2026-05-03 20:29 36.87415 -77.84972 6938 ft 117 kts 26°
2026-05-03 20:30 36.88091 -77.84396 6937 ft 117 kts 26°
2026-05-03 20:30 36.88755 -77.83831 6941 ft 117 kts 26°
2026-05-03 20:30 36.89477 -77.83422 6942 ft 110 kts
2026-05-03 20:30 36.90157 -77.82936 6935 ft 121 kts 42°
2026-05-03 20:31 36.90658 -77.82064 6941 ft 121 kts 41°
2026-05-03 20:31 36.91323 -77.81538 6941 ft 113 kts 15°
2026-05-03 20:31 36.92058 -77.81151 6938 ft 113 kts 15°
2026-05-03 20:31 36.92776 -77.80730 6933 ft 114 kts 19°
2026-05-03 20:32 36.93476 -77.80251 6935 ft 115 kts 22°
2026-05-03 20:32 36.94161 -77.79710 6933 ft 117 kts 30°
2026-05-03 20:32 36.94815 -77.79100 6932 ft 117 kts 28°
2026-05-03 20:32 36.95472 -77.78505 6932 ft 117 kts 28°
2026-05-03 20:33 36.96118 -77.77887 6934 ft 118 kts 32°
2026-05-03 20:33 36.97027 -77.76920 6936 ft 118 kts 32°
2026-05-03 20:33 37.07608 -77.67294 6942 ft 116 kts 23°
2026-05-03 20:33 37.18483 -77.58347 6957 ft 117 kts 25°
2026-05-03 20:34 37.29289 -77.49290 6958 ft 117 kts 25°
2026-05-03 20:34 37.40128 -77.40153 6963 ft 117 kts 25°
2026-05-03 20:34 37.51056 -77.30959 6941 ft 117 kts 26°
2026-05-03 20:34 37.53140 -77.29243 6928 ft 112 kts 12°
2026-05-03 20:35 37.53886 -77.29060 6931 ft 109 kts
2026-05-03 20:35 37.54637 -77.28937 6931 ft 109 kts
2026-05-03 20:35 37.55373 -77.28818 6988 ft 105 kts 360°
2026-05-03 20:35 37.56099 -77.28702 6994 ft 106 kts
2026-05-03 20:36 37.56836 -77.28584 6993 ft 108 kts 360°
2026-05-03 20:36 37.57591 -77.28464 6992 ft 109 kts
2026-05-03 20:36 37.58340 -77.28342 6990 ft 109 kts
2026-05-03 20:36 37.59096 -77.28217 6989 ft 109 kts 360°
2026-05-03 20:37 37.59851 -77.28093 6988 ft 109 kts
2026-05-03 20:37 37.60602 -77.27968 6989 ft 108 kts 359°
2026-05-03 20:37 37.61355 -77.27840 6989 ft 108 kts 360°
2026-05-03 20:37 37.62100 -77.27715 6989 ft 108 kts 360°
2026-05-03 20:38 37.62856 -77.27586 6988 ft 108 kts 359°
2026-05-03 20:38 37.63602 -77.27461 6988 ft 108 kts 360°
2026-05-03 20:38 37.64346 -77.27335 6987 ft 108 kts
2026-05-03 20:38 37.65097 -77.27204 6988 ft 109 kts
2026-05-03 20:39 37.65852 -77.27067 6989 ft 109 kts
2026-05-03 20:39 37.67207 -77.26811 6986 ft 109 kts
2026-05-03 20:39 37.79288 -77.24335 6994 ft 110 kts
2026-05-03 20:39 37.91501 -77.21810 6947 ft 110 kts
2026-05-03 20:40 37.92504 -77.21600 6964 ft 108 kts
2026-05-03 20:40 37.93249 -77.21444 6968 ft 109 kts
2026-05-03 20:40 37.93999 -77.21286 6968 ft 108 kts
2026-05-03 20:40 37.94737 -77.21132 6970 ft 108 kts
2026-05-03 20:41 37.95490 -77.20973 6969 ft 109 kts
2026-05-03 20:41 38.00661 -77.19888 6948 ft 109 kts
2026-05-03 20:41 38.12725 -77.17372 6946 ft 109 kts
2026-05-03 20:41 38.24704 -77.14858 6977 ft 109 kts
2026-05-03 20:42 38.36854 -77.12317 6968 ft 110 kts
2026-05-03 20:42 38.48342 -77.10104 6980 ft 109 kts
2026-05-03 20:42 38.49100 -77.09962 6931 ft 109 kts
2026-05-03 20:42 38.49861 -77.09771 6751 ft 119 kts 16°
2026-05-03 20:43 38.50455 -77.08968 6581 ft 132 kts 56°
2026-05-03 20:43 38.51005 -77.08073 6403 ft 127 kts 33°
2026-05-03 20:43 38.51704 -77.07382 6228 ft 127 kts 30°
2026-05-03 20:43 38.52411 -77.06712 6044 ft 127 kts 30°
2026-05-03 20:44 38.53124 -77.06033 5863 ft 127 kts 30°
2026-05-03 20:44 38.53824 -77.05363 5690 ft 127 kts 30°
2026-05-03 20:44 38.54537 -77.04680 5505 ft 127 kts 30°
2026-05-03 20:44 38.55233 -77.04008 5360 ft 125 kts 30°
2026-05-03 20:45 38.55935 -77.03329 5213 ft 128 kts 30°
2026-05-03 20:45 38.56653 -77.02639 5066 ft 130 kts 30°
2026-05-03 20:45 38.57330 -77.01922 4906 ft 118 kts 39°
2026-05-03 20:45 38.57902 -77.01267 4739 ft 110 kts 28°
2026-05-03 20:46 38.58567 -77.00754 4615 ft 112 kts 19°
2026-05-03 20:46 38.59298 -77.00403 4484 ft 112 kts
2026-05-03 20:46 38.60062 -77.00189 4355 ft 111 kts
2026-05-03 20:46 38.60829 -77.00079 4229 ft 111 kts 358°
2026-05-03 20:47 38.61599 -77.00039 4104 ft 111 kts 354°
2026-05-03 20:47 38.62382 -77.00040 3978 ft 112 kts 353°
2026-05-03 20:47 38.63159 -77.00069 3851 ft 109 kts 348°
2026-05-03 20:47 38.63892 -77.00275 3733 ft 106 kts 339°
2026-05-03 20:48 38.64588 -77.00523 3682 ft 102 kts 340°
2026-05-03 20:48 38.65290 -77.00695 3571 ft 103 kts 343°
2026-05-03 20:48 38.66000 -77.00894 3467 ft 105 kts 342°
2026-05-03 20:48 38.66727 -77.01099 3354 ft 105 kts 342°
2026-05-03 20:49 38.67442 -77.01288 3171 ft 107 kts 342°
2026-05-03 20:49 38.68181 -77.01479 3017 ft 107 kts 343°
2026-05-03 20:49 38.68922 -77.01667 2861 ft 108 kts 342°
2026-05-03 20:49 38.69654 -77.01856 2696 ft 109 kts 344°
2026-05-03 20:50 38.70406 -77.01977 2577 ft 108 kts 348°
2026-05-03 20:50 38.71198 -77.02110 2453 ft 114 kts 345°
2026-05-03 20:50 38.72019 -77.02297 2181 ft 125 kts 343°
2026-05-03 20:50 38.72886 -77.02497 1944 ft 128 kts 348°
2026-05-03 20:51 38.73752 -77.02636 1777 ft 125 kts 349°
2026-05-03 20:51 38.74592 -77.02681 1700 ft 116 kts 354°
2026-05-03 20:51 38.75408 -77.02702 1555 ft 117 kts 350°
2026-05-03 20:51 38.76243 -77.02808 1358 ft 121 kts 351°
2026-05-03 20:52 38.77094 -77.02885 1218 ft 122 kts 349°
2026-05-03 20:52 38.77936 -77.03001 1087 ft 122 kts 348°
2026-05-03 20:52 38.78782 -77.03112 943 ft 123 kts 350°
2026-05-03 20:52 38.79641 -77.03174 821 ft 121 kts 351°
2026-05-03 20:53 38.80456 -77.03262 761 ft 117 kts 347°
2026-05-03 20:53 38.81272 -77.03358 656 ft 116 kts 351°
2026-05-03 20:53 38.82006 -77.03423 474 ft 98 kts 347°
2026-05-03 20:53 38.82659 -77.03508 303 ft 88 kts 348°
2026-05-03 20:54 38.83240 -77.03567 237 ft 74 kts 346°
2026-05-03 20:54 38.84124 -77.03668 72 ft 56 kts 343°
2026-05-03 20:54 38.84503 -77.03703 18 ft 52 kts 343°
2026-05-03 20:55 38.84797 -77.03745 14 ft 38 kts
2026-05-03 20:55 38.85032 -77.03767 15 ft 32 kts 355°
2026-05-03 20:55 38.85206 -77.03783 16 ft 17 kts 354°
2026-05-03 20:55 38.85262 -77.03863 16 ft 8 kts 273°
2026-05-03 20:56 38.85255 -77.03899 17 ft 5 kts 249°
2026-05-03 20:56 38.85196 -77.03921 18 ft 7 kts 176°
2026-05-03 20:56 38.85146 -77.03915 17 ft 11 kts 175°
2026-05-03 20:56 38.85015 -77.03903 16 ft 26 kts 175°
2026-05-03 20:57 38.84812 -77.03888 16 ft 21 kts 179°
2026-05-03 20:57 38.84735 -77.03906 16 ft 10 kts 203°
2026-05-03 20:57 38.84633 -77.03969 14 ft 20 kts 214°
2026-05-03 20:57 38.84546 -77.04020 15 ft 11 kts 158°
2026-05-03 20:58 38.84517 -77.03988 14 ft 0 kts 112°